This demonstration page uses our WeatherBlox Daily Observations layout. Learn more.

Hourly Observations for April 20, 2019

Temp ( °F °C ) Dew Point ( °F °C ) Humidity (%) Winds ( mph kmh ) Pressure ( in mb ) Visibility ( mi km ) Precip ( " mm )
12:15 am 00:15 Clear 50 10 38 3.1 63 63 S 7 11 29.93 1014 10 16.0934 0 0
12:35 am 00:35 Clear 49 9.4 37 2.9 64 64 S 8 13 29.94 1014 10 16.0934 0 0
12:55 am 00:55 Clear 50 10 37 2.6 60 60 S 14 22 29.93 1014 10 16.0934 0 0
1:15 am 01:15 Clear 50 10 37 2.5 60 60 S 10 17 29.93 1014 10 16.0934 0 0
1:35 am 01:35 Clear 50 9.9 36 2.3 59 59 S 10 17 29.93 1014 10 16.0934 0 0
1:55 am 01:55 Clear 50 9.9 36 2.1 59 59 S 9 15 29.93 1014 10 16.0934 0 0
2:15 am 02:15 Clear 49 9.7 36 2 59 59 S 12 19 29.94 1014 10 16.0934 0 0
2:35 am 02:35 Clear 49 9.5 35 1.7 59 59 SSW 10 17 29.93 1013 10 16.0934 0 0
2:55 am 02:55 Clear 48 9.1 35 1.8 61 61 SSW 12 19 29.92 1013 10 16.0934 0 0
3:15 am 03:15 Clear 48 8.8 35 1.7 61 61 SSW 13 20 29.92 1013 10 16.0934 0 0
3:35 am 03:35 Clear 48 8.7 35 1.8 62 62 SSW 13 20 29.91 1013 10 16.0934 0 0
3:55 am 03:55 Clear 47 8.6 35 1.7 62 62 SSW 12 19 29.92 1013 10 16.0934 0 0
4:15 am 04:15 Clear 47 8.6 35 1.9 63 63 SSW 10 17 29.91 1013 10 16.0934 0 0
4:35 am 04:35 Clear 47 8.3 36 2 65 65 SSW 10 17 29.91 1013 10 16.0934 0 0
4:55 am 04:55 Clear 47 8.3 36 2 65 65 SSW 10 17 29.9 1012 10 16.0934 0 0
5:15 am 05:15 Clear 47 8.2 36 2 65 65 SSW 10 17 29.89 1012 10 16.0934 0 0
5:35 am 05:35 Clear 47 8.1 36 2 66 66 SSW 10 17 29.89 1012 10 16.0934 0 0
5:55 am 05:55 Clear 46 7.6 36 2 68 68 SSW 7 11 29.88 1012 10 16.0934 0 0
6:15 am 06:15 Clear 46 7.6 36 2 68 68 SSW 8 13 29.88 1012 10 16.0934 0 0
6:35 am 06:35 Clear 45 7.3 36 2 69 69 SSW 8 13 29.88 1012 10 16.0934 0 0
6:55 am 06:55 Sunny 45 7.2 36 2 70 70 SSW 9 15 29.88 1012 10 16.0934 0 0
7:15 am 07:15 Sunny 45 7.2 36 2.2 71 71 SSW 9 15 29.88 1012 10 16.0934 0 0
7:35 am 07:35 Sunny 47 8.1 37 2.5 68 68 SSW 8 13 29.87 1011 10 16.0934 0 0
7:55 am 07:55 Sunny 48 9 37 2.8 65 65 S 6 9 29.86 1011 10 16.0934 0 0
8:15 am 08:15 Sunny 50 10.1 38 3.3 63 63 SSW 7 11 29.85 1011 10 16.0934 0 0
8:35 am 08:35 Sunny 53 11.4 39 3.9 60 60 SSW 8 13 29.84 1011 10 16.0934 0 0
8:55 am 08:55 Sunny 55 12.9 40 4.4 57 57 SW 9 15 29.82 1010 10 16.0934 0 0
9:15 am 09:15 Sunny 57 13.7 40 4.7 55 55 SW 10 17 29.81 1009 10 16.0934 0 0
9:35 am 09:35 Sunny 59 15 42 5.7 54 54 SW 7 11 29.8 1009 10 16.0934 0 0
9:55 am 09:55 Sunny 62 16.7 42 5.8 49 49 SSW 8 13 29.79 1009 10 16.0934 0 0
10:15 am 10:15 Sunny 64 18 43 6 46 46 SW 7 11 29.77 1008 10 16.0934 0 0
10:35 am 10:35 Sunny 66 19 43 6.2 43 43 SW 7 11 29.77 1008 10 16.0934 0 0
10:55 am 10:55 Sunny 68 20.1 42 5.7 39 39 SW 8 13 29.76 1008 10 16.0934 0 0
11:15 am 11:15 Sunny 71 21.5 43 6.1 37 37 SW 12 19 29.75 1007 10 16.0934 0 0
11:35 am 11:35 Sunny 72 22.4 43 6.3 35 35 SW 8 13 29.73 1007 10 16.0934 0 0
11:55 am 11:55 Sunny 74 23.6 44 6.4 33 33 SW 10 17 29.72 1006 10 16.0934 0 0
12:15 pm 12:15 Sunny 76 24.3 44 6.6 32 32 SW 10 17 29.7 1006 10 16.0934 0 0
12:35 pm 12:35 Sunny 78 25.5 44 6.7 30 30 SW 9 15 29.68 1005 10 16.0934 0 0
12:55 pm 12:55 Sunny 80 26.5 44 6.9 29 29 SSW 10 17 29.67 1005 10 16.0934 0 0
1:15 pm 13:15 Sunny 81 27.1 44 6.7 27 27 SW 14 22 29.65 1004 10 16.0934 0 0
1:35 pm 13:35 Sunny 82 27.6 43 6.1 25 25 S 17 28 29.63 1003 10 16.0934 0 0
1:55 pm 13:55 Sunny 83 28.2 42 5.7 24 24 SSW 18 30 29.61 1003 10 16.0934 0 0
2:15 pm 14:15 Sunny 83 28.5 44 6.8 25 25 SW 12 19 29.61 1003 10 16.0934 0 0
2:35 pm 14:35 Sunny 84 28.8 46 7.8 27 27 SSE 15 24 29.6 1002 10 16.0934 0 0
2:55 pm 14:55 Sunny 84 29 45 7.1 25 25 S 14 22 29.59 1002 10 16.0934 0 0
3:15 pm 15:15 Sunny 85 29.5 44 6.9 24 24 SSE 13 20 29.57 1001 10 16.0934 0 0
3:35 pm 15:35 Sunny 86 30.1 43 6.2 22 22 SSW 15 24 29.56 1001 10 16.0934 0 0
3:55 pm 15:55 Sunny 86 29.8 42 5.6 22 22 S 14 22 29.55 1001 10 16.0934 0 0
4:15 pm 16:15 Sunny 85 29.6 41 5.2 21 21 SSW 17 28 29.53 1000 10 16.0934 0 0
4:35 pm 16:35 Sunny 84 29 42 5.5 22 22 SSW 13 20 29.54 1000 10 16.0934 0 0
4:55 pm 16:55 Sunny 86 30.1 42 5.4 21 21 SSW 13 20 29.52 1000 10 16.0934 0 0
5:15 pm 17:15 Sunny 86 30.1 42 5.7 21 21 SSE 14 22 29.51 999 10 16.0934 0 0
5:35 pm 17:35 Sunny 86 30.2 42 5.3 21 21 S 15 24 29.51 999 10 16.0934 0 0
5:55 pm 17:55 Sunny 86 30.1 41 5.2 21 21 S 16 26 29.5 999 10 16.0934 0 0
6:15 pm 18:15 Sunny 85 29.7 41 5 21 21 S 16 26 29.5 999 10 16.0934 0 0
6:35 pm 18:35 Sunny 85 29.5 40 4.7 21 21 S 15 24 29.5 999 10 16.0934 0 0
6:55 pm 18:55 Sunny 84 28.8 41 4.8 22 22 S 16 26 29.51 999 10 16.0934 0 0
7:15 pm 19:15 Sunny 82 27.5 42 5.8 25 25 S 13 20 29.52 1000 10 16.0934 0 0
7:35 pm 19:35 Sunny 78 25.5 44 6.5 30 30 S 12 19 29.53 1000 10 16.0934 0 0
7:55 pm 19:55 Sunny 77 25 44 6.5 31 31 S 10 17 29.54 1000 10 16.0934 0 0
8:15 pm 20:15 Sunny 75 23.7 43 6.3 33 33 S 9 15 29.55 1001 10 16.0934 0 0
8:35 pm 20:35 Clear 71 21.5 43 6.3 37 37 S 10 17 29.57 1001 10 16.0934 0 0
8:55 pm 20:55 Clear 70 21 44 6.4 39 39 S 10 17 29.58 1002 10 16.0934 0 0
9:15 pm 21:15 Clear 70 21 44 6.6 39 39 S 13 20 29.58 1002 10 16.0934 0 0
9:35 pm 21:35 Clear 70 21.1 44 6.9 40 40 S 13 20 29.59 1002 10 16.0934 0 0
9:55 pm 21:55 Clear 68 20.2 46 7.6 44 44 S 15 24 29.6 1002 10 16.0934 0 0
10:15 pm 22:15 Clear 69 20.3 47 8.6 47 47 S 14 22 29.61 1003 10 16.0934 0 0
10:35 pm 22:35 Clear 68 19.8 49 9.3 51 51 S 14 22 29.61 1003 10 16.0934 0 0
10:55 pm 22:55 Clear 67 19.7 49 9.5 52 52 S 15 24 29.61 1003 10 16.0934 0 0
11:15 pm 23:15 Clear 67 19.2 49 9.7 54 54 S 16 26 29.61 1003 10 16.0934 0 0
11:35 pm 23:35 Clear 66 18.8 49 9.6 55 55 S 15 24 29.62 1003 10 16.0934 0 0
11:55 pm 23:55 Clear 64 17.8 49 9.7 59 59 S 13 20 29.63 1003 10 16.0934 0 0

Powered by AerisWeather